Year,Month,Day,Hour,Minute,Value (Times are PST for temperature in C)
2013,06,26,00,00,13.70
2013,06,26,00,01,13.70
2013,06,26,00,02,13.70
2013,06,26,00,03,13.60
2013,06,26,00,04,13.60
2013,06,26,00,05,13.60
2013,06,26,00,06,13.60
2013,06,26,00,07,13.50
2013,06,26,00,08,13.50
2013,06,26,00,09,13.60
2013,06,26,00,10,13.50
2013,06,26,00,11,13.50
2013,06,26,00,12,13.50
2013,06,26,00,13,13.50
2013,06,26,00,14,13.50
2013,06,26,00,15,13.50
2013,06,26,00,16,13.50
2013,06,26,00,17,13.50
2013,06,26,00,18,13.50
2013,06,26,00,19,13.50
2013,06,26,00,20,13.50
2013,06,26,00,21,13.50
2013,06,26,00,22,13.50
2013,06,26,00,23,13.40
2013,06,26,00,24,13.40
2013,06,26,00,25,13.40
2013,06,26,00,26,13.40
2013,06,26,00,27,13.40
2013,06,26,00,28,13.40
2013,06,26,00,29,13.40
2013,06,26,00,30,13.40
2013,06,26,00,31,13.40
2013,06,26,00,32,13.40
2013,06,26,00,33,13.40
2013,06,26,00,34,13.40
2013,06,26,00,35,13.40
2013,06,26,00,36,13.30
2013,06,26,00,37,13.30
2013,06,26,00,38,13.30
2013,06,26,00,39,13.40
2013,06,26,00,40,13.40
2013,06,26,00,41,13.40
2013,06,26,00,42,13.30
2013,06,26,00,43,13.30
2013,06,26,00,44,13.30
2013,06,26,00,45,13.30
2013,06,26,00,46,13.30
2013,06,26,00,47,13.30
2013,06,26,00,48,13.30
2013,06,26,00,49,13.30
2013,06,26,00,50,13.30
2013,06,26,00,51,13.30
2013,06,26,00,52,13.30
2013,06,26,00,53,13.20
2013,06,26,00,54,13.20
2013,06,26,00,55,13.20
2013,06,26,00,56,13.20
2013,06,26,00,57,13.10
2013,06,26,00,58,13.10
2013,06,26,00,59,13.10
2013,06,26,01,00,13.10
2013,06,26,01,01,13.10
2013,06,26,01,02,13.00
2013,06,26,01,03,13.00
2013,06,26,01,04,13.00
2013,06,26,01,05,12.90
2013,06,26,01,06,12.90
2013,06,26,01,07,12.90
2013,06,26,01,08,12.90
2013,06,26,01,09,12.90
2013,06,26,01,10,12.80
2013,06,26,01,11,12.80
2013,06,26,01,12,12.80
2013,06,26,01,13,12.80
2013,06,26,01,14,12.80
2013,06,26,01,15,12.80
2013,06,26,01,16,12.80
2013,06,26,01,17,12.80
2013,06,26,01,18,12.80
2013,06,26,01,19,12.80
2013,06,26,01,20,12.80
2013,06,26,01,21,12.80
2013,06,26,01,22,12.80
2013,06,26,01,23,12.80
2013,06,26,01,24,12.80
2013,06,26,01,25,12.80
2013,06,26,01,26,12.80
2013,06,26,01,27,12.80
2013,06,26,01,28,12.80
2013,06,26,01,29,12.80
2013,06,26,01,30,12.80
2013,06,26,01,31,12.80
2013,06,26,01,32,12.80
2013,06,26,01,33,12.80
2013,06,26,01,34,12.80
2013,06,26,01,35,12.80
2013,06,26,01,36,12.80
2013,06,26,01,37,12.80
2013,06,26,01,38,12.80
2013,06,26,01,39,12.80
2013,06,26,01,40,12.80
2013,06,26,01,41,12.80
2013,06,26,01,42,12.80
2013,06,26,01,43,12.80
2013,06,26,01,44,12.80
2013,06,26,01,45,12.80
2013,06,26,01,46,12.80
2013,06,26,01,47,12.80
2013,06,26,01,48,12.80
2013,06,26,01,49,12.80
2013,06,26,01,50,12.80
2013,06,26,01,51,12.80
2013,06,26,01,52,12.80
2013,06,26,01,53,12.80
2013,06,26,01,54,12.80
2013,06,26,01,55,12.80
2013,06,26,01,56,12.80
2013,06,26,01,57,12.80
2013,06,26,01,58,12.80
2013,06,26,01,59,12.80
2013,06,26,02,00,12.80
2013,06,26,02,01,12.80
2013,06,26,02,02,12.80
2013,06,26,02,03,12.80
2013,06,26,02,04,12.80
2013,06,26,02,05,12.80
2013,06,26,02,06,12.80
2013,06,26,02,07,12.80
2013,06,26,02,08,12.80
2013,06,26,02,09,12.80
2013,06,26,02,10,12.80
2013,06,26,02,11,12.80
2013,06,26,02,12,12.80
2013,06,26,02,13,12.80
2013,06,26,02,14,12.80
2013,06,26,02,15,12.80
2013,06,26,02,16,12.80
2013,06,26,02,17,12.80
2013,06,26,02,18,12.80
2013,06,26,02,19,12.80
2013,06,26,02,20,12.80
2013,06,26,02,21,12.80
2013,06,26,02,22,12.80
2013,06,26,02,23,12.80
2013,06,26,02,24,12.80
2013,06,26,02,25,12.80
2013,06,26,02,26,12.80
2013,06,26,02,27,12.80
2013,06,26,02,28,12.80
2013,06,26,02,29,12.80
2013,06,26,02,30,12.80
2013,06,26,02,31,12.80
2013,06,26,02,32,12.80
2013,06,26,02,33,12.80
2013,06,26,02,34,12.80
2013,06,26,02,35,12.80
2013,06,26,02,36,12.80
2013,06,26,02,37,12.80
2013,06,26,02,38,12.80
2013,06,26,02,39,12.80
2013,06,26,02,40,12.80
2013,06,26,02,41,12.80
2013,06,26,02,42,12.90
2013,06,26,02,43,12.90
2013,06,26,02,44,12.90
2013,06,26,02,45,12.90
2013,06,26,02,46,12.90
2013,06,26,02,47,12.90
2013,06,26,02,48,13.00
2013,06,26,02,49,13.00
2013,06,26,02,50,13.00
2013,06,26,02,51,13.00
2013,06,26,02,52,13.00
2013,06,26,02,53,13.00
2013,06,26,02,54,13.00
2013,06,26,02,55,13.10
2013,06,26,02,56,13.10
2013,06,26,02,57,13.10
2013,06,26,02,58,13.10
2013,06,26,02,59,13.10
2013,06,26,03,00,13.10
2013,06,26,03,01,13.10
2013,06,26,03,02,13.10
2013,06,26,03,03,13.10
2013,06,26,03,04,13.10
2013,06,26,03,05,13.00
2013,06,26,03,06,13.00
2013,06,26,03,07,13.00
2013,06,26,03,08,13.00
2013,06,26,03,09,13.00
2013,06,26,03,10,13.00
2013,06,26,03,11,13.00
2013,06,26,03,12,13.00
2013,06,26,03,13,13.00
2013,06,26,03,14,13.00
2013,06,26,03,15,13.00
2013,06,26,03,16,12.90
2013,06,26,03,17,12.90
2013,06,26,03,18,12.90
2013,06,26,03,19,12.90
2013,06,26,03,20,12.90
2013,06,26,03,21,12.80
2013,06,26,03,22,12.80
2013,06,26,03,23,12.80
2013,06,26,03,24,12.80
2013,06,26,03,25,12.80
2013,06,26,03,26,12.80
2013,06,26,03,27,12.80
2013,06,26,03,28,12.80
2013,06,26,03,29,12.80
2013,06,26,03,30,12.80
2013,06,26,03,31,12.80
2013,06,26,03,32,12.80
2013,06,26,03,33,12.80
2013,06,26,03,34,12.80
2013,06,26,03,35,12.80
2013,06,26,03,36,12.80
2013,06,26,03,37,12.80
2013,06,26,03,38,12.80
2013,06,26,03,39,12.80
2013,06,26,03,40,12.70
2013,06,26,03,41,12.70
2013,06,26,03,42,12.70
2013,06,26,03,43,12.70
2013,06,26,03,44,12.70
2013,06,26,03,45,12.70
2013,06,26,03,46,12.70
2013,06,26,03,47,12.70
2013,06,26,03,48,12.70
2013,06,26,03,49,12.70
2013,06,26,03,50,12.70
2013,06,26,03,51,12.70
2013,06,26,03,52,12.70
2013,06,26,03,53,12.70
2013,06,26,03,54,12.70
2013,06,26,03,55,12.70
2013,06,26,03,56,12.80
2013,06,26,03,57,12.80
2013,06,26,03,58,12.80
2013,06,26,03,59,12.80
2013,06,26,04,00,12.70
2013,06,26,04,01,12.70
2013,06,26,04,02,12.70
2013,06,26,04,03,12.70
2013,06,26,04,04,12.70
2013,06,26,04,05,12.70
2013,06,26,04,06,12.70
2013,06,26,04,07,12.70
2013,06,26,04,08,12.70
2013,06,26,04,09,12.70
2013,06,26,04,10,12.70
2013,06,26,04,11,12.70
2013,06,26,04,12,12.70
2013,06,26,04,13,12.70
2013,06,26,04,14,12.70
2013,06,26,04,15,12.70
2013,06,26,07,56,13.60
2013,06,26,07,57,13.60
2013,06,26,07,58,13.70
2013,06,26,07,59,13.70
2013,06,26,08,00,13.70
2013,06,26,08,01,13.70
2013,06,26,08,02,13.80
2013,06,26,08,03,13.80
2013,06,26,08,04,13.90
2013,06,26,08,05,14.00
2013,06,26,08,06,14.00
2013,06,26,08,07,14.00
2013,06,26,08,08,14.00
2013,06,26,08,09,13.90
2013,06,26,08,10,14.00
2013,06,26,08,11,14.00
2013,06,26,08,12,14.00
2013,06,26,08,13,14.10
2013,06,26,08,14,14.20
2013,06,26,08,15,14.20
2013,06,26,08,16,14.30
2013,06,26,08,17,14.40
2013,06,26,08,18,14.40
2013,06,26,08,19,14.50
2013,06,26,08,20,14.50
2013,06,26,08,21,14.50
2013,06,26,08,22,14.50
2013,06,26,08,23,14.50
2013,06,26,08,24,14.50
2013,06,26,08,25,14.50
2013,06,26,08,26,14.50
2013,06,26,08,27,14.50
2013,06,26,08,28,14.50
2013,06,26,08,29,14.50
2013,06,26,08,30,14.60
2013,06,26,08,31,14.60
2013,06,26,08,32,14.60
2013,06,26,08,33,14.60
2013,06,26,08,34,14.50
2013,06,26,08,35,14.50
2013,06,26,08,36,14.50
2013,06,26,08,37,14.40
2013,06,26,08,38,14.40
2013,06,26,08,39,14.30
2013,06,26,08,40,14.30
2013,06,26,08,41,14.20
2013,06,26,08,42,14.20
2013,06,26,08,43,14.20
2013,06,26,08,44,14.20
2013,06,26,08,45,14.20
2013,06,26,08,46,14.20
2013,06,26,08,47,14.20
2013,06,26,08,48,14.20
2013,06,26,08,49,14.20
2013,06,26,08,50,14.20
2013,06,26,08,51,14.30
2013,06,26,08,52,14.30
2013,06,26,08,53,14.30
2013,06,26,08,54,14.30
2013,06,26,08,55,14.30
2013,06,26,08,56,14.30
2013,06,26,08,57,14.20
2013,06,26,08,58,14.20
2013,06,26,08,59,14.20
2013,06,26,09,00,14.20
2013,06,26,09,01,14.20
2013,06,26,09,02,14.20
2013,06,26,09,03,14.20
2013,06,26,09,04,14.20
2013,06,26,09,05,14.20
2013,06,26,09,06,14.20
2013,06,26,09,07,14.20
2013,06,26,09,08,14.20
2013,06,26,09,09,14.20
2013,06,26,09,10,14.20
2013,06,26,09,11,14.20
2013,06,26,09,12,14.20
2013,06,26,09,13,14.20
2013,06,26,09,14,14.20
2013,06,26,09,15,14.20
2013,06,26,09,16,14.20
2013,06,26,09,17,14.20
2013,06,26,09,18,14.20
2013,06,26,09,19,14.20
2013,06,26,09,20,14.20
2013,06,26,09,21,14.20
2013,06,26,09,22,14.20
2013,06,26,09,23,14.20
2013,06,26,09,24,14.20
2013,06,26,09,25,14.20
2013,06,26,09,26,14.20
2013,06,26,09,27,14.20
2013,06,26,09,28,14.20
2013,06,26,09,29,14.20
2013,06,26,09,30,14.20
2013,06,26,09,31,14.20
2013,06,26,09,32,14.20
2013,06,26,09,33,14.20
2013,06,26,09,34,14.20
2013,06,26,09,35,14.30
2013,06,26,09,36,14.30
2013,06,26,09,37,14.30
2013,06,26,09,38,14.30
2013,06,26,09,39,14.30
2013,06,26,09,40,14.40
2013,06,26,09,41,14.40
2013,06,26,09,42,14.40
2013,06,26,09,43,14.40
2013,06,26,09,44,14.50
2013,06,26,09,45,14.50
2013,06,26,09,46,14.50
2013,06,26,09,47,14.60
2013,06,26,09,48,14.60
2013,06,26,09,49,14.60
2013,06,26,09,50,14.70
2013,06,26,09,51,14.70
2013,06,26,09,52,14.80
2013,06,26,09,53,14.80
2013,06,26,09,54,14.80
2013,06,26,09,55,14.80
2013,06,26,09,56,14.80
2013,06,26,09,57,14.80
2013,06,26,09,58,14.80
2013,06,26,09,59,14.80
2013,06,26,10,00,14.80
2013,06,26,10,01,14.80
2013,06,26,10,02,14.80
2013,06,26,10,03,14.80
2013,06,26,10,04,14.80
2013,06,26,10,05,14.80
2013,06,26,10,06,14.80
2013,06,26,10,07,14.80
2013,06,26,10,08,14.80
2013,06,26,10,09,14.80
2013,06,26,10,10,14.80
2013,06,26,10,11,14.80
2013,06,26,10,12,14.80
2013,06,26,10,13,14.80
2013,06,26,10,14,14.80
2013,06,26,10,15,14.80
2013,06,26,10,16,14.80
2013,06,26,10,17,14.80
2013,06,26,10,18,14.80
2013,06,26,10,19,14.80
2013,06,26,10,20,14.80
2013,06,26,10,21,14.80
2013,06,26,10,22,14.80
2013,06,26,10,23,14.80
2013,06,26,10,24,14.80
2013,06,26,10,25,14.80
2013,06,26,10,26,14.80
2013,06,26,10,27,14.80
2013,06,26,10,28,14.80
2013,06,26,10,29,14.70
2013,06,26,10,30,14.70
2013,06,26,10,31,14.60
2013,06,26,10,32,14.60
2013,06,26,10,33,14.60
2013,06,26,10,34,14.70
2013,06,26,10,35,14.70
2013,06,26,10,36,14.70
2013,06,26,10,37,14.80
2013,06,26,10,38,14.80
2013,06,26,10,39,14.80
2013,06,26,10,40,14.80
2013,06,26,10,41,14.80
2013,06,26,10,42,14.70
2013,06,26,10,43,14.60
2013,06,26,10,44,14.60
2013,06,26,10,45,14.60
2013,06,26,10,46,14.50
2013,06,26,10,47,14.50
2013,06,26,10,48,14.40
2013,06,26,10,49,14.40
2013,06,26,10,50,14.40
2013,06,26,10,51,14.30
2013,06,26,10,52,14.30
2013,06,26,10,53,14.30
2013,06,26,10,54,14.30
2013,06,26,10,55,14.30
2013,06,26,10,56,14.30
2013,06,26,10,57,14.30
2013,06,26,10,58,14.40
2013,06,26,10,59,14.40
2013,06,26,11,00,14.40
2013,06,26,11,01,14.50
2013,06,26,11,02,14.50
2013,06,26,11,03,14.50
2013,06,26,11,04,14.60
2013,06,26,11,05,14.60
2013,06,26,11,06,14.60
2013,06,26,11,07,14.60
2013,06,26,11,08,14.60
2013,06,26,11,09,14.70
2013,06,26,11,10,14.80
2013,06,26,11,11,14.80
2013,06,26,11,12,14.80
2013,06,26,11,13,14.80
2013,06,26,11,14,14.80
2013,06,26,11,15,14.80
2013,06,26,11,16,14.80
2013,06,26,11,17,14.80
2013,06,26,11,18,14.70
2013,06,26,11,19,14.70
2013,06,26,11,20,14.60
2013,06,26,11,21,14.60
2013,06,26,11,22,14.60
2013,06,26,11,23,14.60
2013,06,26,11,24,14.60
2013,06,26,11,25,14.60
2013,06,26,11,26,14.60
2013,06,26,11,27,14.60
2013,06,26,11,28,14.60
2013,06,26,11,29,14.50
2013,06,26,11,30,14.50
2013,06,26,11,31,14.50
2013,06,26,11,32,14.60
2013,06,26,11,33,14.60
2013,06,26,11,34,14.60
2013,06,26,11,35,14.70
2013,06,26,11,36,14.80
2013,06,26,11,37,14.80
2013,06,26,11,38,14.80
2013,06,26,11,39,14.80
2013,06,26,11,40,14.80
2013,06,26,11,41,14.80
2013,06,26,11,42,14.80
2013,06,26,11,43,14.70
2013,06,26,11,44,14.60
2013,06,26,11,45,14.50
2013,06,26,11,46,14.40
2013,06,26,11,47,14.30
2013,06,26,11,48,14.30
2013,06,26,11,49,14.20
2013,06,26,11,50,14.20
2013,06,26,11,51,14.20
2013,06,26,11,52,14.20
2013,06,26,11,53,14.20
2013,06,26,11,54,14.30
2013,06,26,11,55,14.30
2013,06,26,11,56,14.30
2013,06,26,11,57,14.40
2013,06,26,11,58,14.40
2013,06,26,11,59,14.40
2013,06,26,12,00,14.40
2013,06,26,12,01,14.40
2013,06,26,12,02,14.40
2013,06,26,12,03,14.40
2013,06,26,12,04,14.40
2013,06,26,12,05,14.40
2013,06,26,12,06,14.50
2013,06,26,12,07,14.60
2013,06,26,12,08,14.70
2013,06,26,12,09,14.70
2013,06,26,12,10,14.80
2013,06,26,12,11,14.80
2013,06,26,12,12,14.80
2013,06,26,12,13,14.80
2013,06,26,12,14,14.80
2013,06,26,12,15,14.90
2013,06,26,12,16,15.00
2013,06,26,12,17,15.00
2013,06,26,12,18,15.00
2013,06,26,12,19,15.10
2013,06,26,12,20,15.10
2013,06,26,12,21,15.20
2013,06,26,12,22,15.40
2013,06,26,12,23,15.50
2013,06,26,12,24,15.50
2013,06,26,12,25,15.70
2013,06,26,12,26,15.80
2013,06,26,12,27,15.80
2013,06,26,12,28,15.90
2013,06,26,12,29,16.10
2013,06,26,12,30,16.20
2013,06,26,12,31,16.30
2013,06,26,12,32,16.30
2013,06,26,12,33,16.30
2013,06,26,12,34,16.40
2013,06,26,12,35,16.40
2013,06,26,12,36,16.40
2013,06,26,12,37,16.40
2013,06,26,12,38,16.40
2013,06,26,12,39,16.40
2013,06,26,12,40,16.40
2013,06,26,12,41,16.40
2013,06,26,12,42,16.40
2013,06,26,12,43,16.40
2013,06,26,12,44,16.40
2013,06,26,12,45,16.40
2013,06,26,12,46,16.40
2013,06,26,12,47,16.40
2013,06,26,12,48,16.40
2013,06,26,12,49,16.40
2013,06,26,12,50,16.60
2013,06,26,12,51,16.60
2013,06,26,12,52,16.60
2013,06,26,12,53,16.60
2013,06,26,12,54,16.60
2013,06,26,12,55,16.40
2013,06,26,12,56,16.40
2013,06,26,12,57,16.40
2013,06,26,12,58,16.30
2013,06,26,12,59,16.20
2013,06,26,13,00,16.30
2013,06,26,13,01,16.40
2013,06,26,13,02,16.40
2013,06,26,13,03,16.40
2013,06,26,13,04,16.60
2013,06,26,13,05,16.70
2013,06,26,13,06,16.70
2013,06,26,13,07,16.70
2013,06,26,13,08,16.70
2013,06,26,13,09,16.80
2013,06,26,13,10,16.80
2013,06,26,13,11,16.90
2013,06,26,13,12,16.90
2013,06,26,13,13,16.90
2013,06,26,13,14,16.80
2013,06,26,13,15,16.70
2013,06,26,13,16,16.70
2013,06,26,13,17,16.70
2013,06,26,13,18,16.70
2013,06,26,13,19,16.70
2013,06,26,13,20,16.70
2013,06,26,13,21,16.70
2013,06,26,13,22,16.70
2013,06,26,13,23,16.70
2013,06,26,13,24,16.80
2013,06,26,13,25,16.80
2013,06,26,13,26,16.90
2013,06,26,13,27,16.90
2013,06,26,13,28,17.00
2013,06,26,13,29,17.00
2013,06,26,13,30,17.00
2013,06,26,13,31,17.00
2013,06,26,13,32,17.10
2013,06,26,13,33,17.20
2013,06,26,13,34,17.30
2013,06,26,13,35,17.20
2013,06,26,13,36,17.20
2013,06,26,13,37,17.30
2013,06,26,13,38,17.30
2013,06,26,13,39,17.30
2013,06,26,13,40,17.30
2013,06,26,13,41,17.30
2013,06,26,13,42,17.40
2013,06,26,13,43,17.40
2013,06,26,13,44,17.40
2013,06,26,13,45,17.50
2013,06,26,13,46,17.60
2013,06,26,13,47,17.60
2013,06,26,13,48,17.60
2013,06,26,13,49,17.60
2013,06,26,13,50,17.60
2013,06,26,13,51,17.60
2013,06,26,13,52,17.60
2013,06,26,13,53,17.60
2013,06,26,13,54,17.60
2013,06,26,13,55,17.60
2013,06,26,13,56,17.50
2013,06,26,13,57,17.60
2013,06,26,13,58,17.60
2013,06,26,13,59,17.50
2013,06,26,14,00,17.50
2013,06,26,14,01,17.50
2013,06,26,14,02,17.50
2013,06,26,14,03,17.50
2013,06,26,14,04,17.40
2013,06,26,14,05,17.40
2013,06,26,14,06,17.40
2013,06,26,14,07,17.30
2013,06,26,14,08,17.30
2013,06,26,14,09,17.30
2013,06,26,14,10,17.30
2013,06,26,14,11,17.30
2013,06,26,14,12,17.30
2013,06,26,14,13,17.30
2013,06,26,14,14,17.30
2013,06,26,14,15,17.30
2013,06,26,14,16,17.30
2013,06,26,14,17,17.20
2013,06,26,14,18,17.20
2013,06,26,14,19,17.20
2013,06,26,14,20,17.30
2013,06,26,14,21,17.20
2013,06,26,14,22,17.20
2013,06,26,14,23,17.20
2013,06,26,14,24,17.10
2013,06,26,14,25,17.10
2013,06,26,14,26,17.10
2013,06,26,14,27,17.10
2013,06,26,14,28,17.10
2013,06,26,14,29,17.10
2013,06,26,14,30,17.10
2013,06,26,14,31,17.10
2013,06,26,14,32,17.10
2013,06,26,14,33,17.10
2013,06,26,14,34,17.10
2013,06,26,14,35,17.10
2013,06,26,14,36,17.10
2013,06,26,14,37,17.00
2013,06,26,14,38,17.00
2013,06,26,14,39,17.00
2013,06,26,14,40,16.90
2013,06,26,14,41,16.90
2013,06,26,14,42,16.90
2013,06,26,14,43,17.00
2013,06,26,14,44,17.00
2013,06,26,14,45,17.00
2013,06,26,14,46,17.00
2013,06,26,14,47,17.00
2013,06,26,14,48,17.00
2013,06,26,14,49,17.00
2013,06,26,14,50,17.00
2013,06,26,14,51,17.00
2013,06,26,14,52,16.90
2013,06,26,14,53,16.90
2013,06,26,14,54,16.80
2013,06,26,14,55,16.80
2013,06,26,14,56,16.80
2013,06,26,14,57,16.80
2013,06,26,14,58,16.80
2013,06,26,14,59,16.80
2013,06,26,15,00,16.70
2013,06,26,15,01,16.70
2013,06,26,15,02,16.70
2013,06,26,15,03,16.70
2013,06,26,15,04,16.70
2013,06,26,15,05,16.70
2013,06,26,15,06,16.70
2013,06,26,15,07,16.70
2013,06,26,15,08,16.60
2013,06,26,15,09,16.60
2013,06,26,15,10,16.60
2013,06,26,15,11,16.70
2013,06,26,15,12,16.70
2013,06,26,15,13,16.70
2013,06,26,15,14,16.70
2013,06,26,15,15,16.70
2013,06,26,15,16,16.70
2013,06,26,15,17,16.70
2013,06,26,15,18,16.80
2013,06,26,15,19,16.90
2013,06,26,15,20,16.90
2013,06,26,15,21,17.00
2013,06,26,15,22,17.00
2013,06,26,15,23,17.10
2013,06,26,15,24,17.20
2013,06,26,15,25,17.20
2013,06,26,15,26,17.30
2013,06,26,15,27,17.30
2013,06,26,15,28,17.30
2013,06,26,15,29,17.30
2013,06,26,15,30,17.30
2013,06,26,15,31,17.30
2013,06,26,15,32,17.40
2013,06,26,15,33,17.40
2013,06,26,15,34,17.40
2013,06,26,15,35,17.40
2013,06,26,15,36,17.50
2013,06,26,15,37,17.50
2013,06,26,15,38,17.40
2013,06,26,15,39,17.40
2013,06,26,15,40,17.40
2013,06,26,15,41,17.40
2013,06,26,15,42,17.40
2013,06,26,15,43,17.50
2013,06,26,15,44,17.50
2013,06,26,15,45,17.50
2013,06,26,15,46,17.50
2013,06,26,15,47,17.50
2013,06,26,15,48,17.50
2013,06,26,15,49,17.50
2013,06,26,15,50,17.50
2013,06,26,15,51,17.50
2013,06,26,15,52,17.50
2013,06,26,15,53,17.60
2013,06,26,15,54,17.70
2013,06,26,15,55,17.80
2013,06,26,15,57,17.90
2013,06,26,15,58,17.90
2013,06,26,15,59,17.90
2013,06,26,16,00,18.10
2013,06,26,16,01,18.10
2013,06,26,16,02,18.10
2013,06,26,16,03,18.10
2013,06,26,16,04,18.10
2013,06,26,16,05,17.90
2013,06,26,16,06,17.90
2013,06,26,16,07,17.90
2013,06,26,16,08,17.90
2013,06,26,16,09,17.80
2013,06,26,16,10,17.80
2013,06,26,16,11,17.80
2013,06,26,16,12,17.80
2013,06,26,16,13,17.80
2013,06,26,16,14,17.80
2013,06,26,16,15,17.80
2013,06,26,16,16,17.80
2013,06,26,16,17,17.80
2013,06,26,16,18,17.90
2013,06,26,16,19,17.90
2013,06,26,16,20,17.90
2013,06,26,16,21,17.90
2013,06,26,16,22,17.90
2013,06,26,16,23,17.90
2013,06,26,16,24,17.90
2013,06,26,16,25,17.90
2013,06,26,16,26,17.90
2013,06,26,16,27,17.90
2013,06,26,16,28,18.10
2013,06,26,16,29,18.10
2013,06,26,16,30,17.90
2013,06,26,16,31,17.90
2013,06,26,16,32,17.90
2013,06,26,16,33,17.90
2013,06,26,16,34,17.80
2013,06,26,16,35,17.80
2013,06,26,16,36,17.70
2013,06,26,16,37,17.60
2013,06,26,16,38,17.50
2013,06,26,16,39,17.40
2013,06,26,16,40,17.30
2013,06,26,16,41,17.30
2013,06,26,16,42,17.30
2013,06,26,16,43,17.30
2013,06,26,16,44,17.30
2013,06,26,16,45,17.20
2013,06,26,16,46,17.20
2013,06,26,16,47,17.20
2013,06,26,16,48,17.20
2013,06,26,16,49,17.20
2013,06,26,16,50,17.20
2013,06,26,16,51,17.20
2013,06,26,16,52,17.20
2013,06,26,16,53,17.10
2013,06,26,16,54,17.00
2013,06,26,16,55,16.90
2013,06,26,16,56,16.90
2013,06,26,16,57,16.80
2013,06,26,16,58,16.80
2013,06,26,16,59,16.80
2013,06,26,17,00,16.70
2013,06,26,17,01,16.70
2013,06,26,17,02,16.70
2013,06,26,17,03,16.70
2013,06,26,17,04,16.70
2013,06,26,17,05,16.70
2013,06,26,17,06,16.70
2013,06,26,17,07,16.70
2013,06,26,17,08,16.70
2013,06,26,17,09,16.70
2013,06,26,17,10,16.70
2013,06,26,17,11,16.70
2013,06,26,17,12,16.70
2013,06,26,17,13,16.70
2013,06,26,17,14,16.70
2013,06,26,17,15,16.70
2013,06,26,17,16,16.60
2013,06,26,17,17,16.60
2013,06,26,17,18,16.40
2013,06,26,17,19,16.40
2013,06,26,17,20,16.40
2013,06,26,17,21,16.40
2013,06,26,17,22,16.40
2013,06,26,17,23,16.40
2013,06,26,17,24,16.40
2013,06,26,17,25,16.30
2013,06,26,17,26,16.30
2013,06,26,17,27,16.30
2013,06,26,17,28,16.30
2013,06,26,17,29,16.30
2013,06,26,17,30,16.40
2013,06,26,17,31,16.40
2013,06,26,17,32,16.40
2013,06,26,17,33,16.40
2013,06,26,17,34,16.60
2013,06,26,17,35,16.60
2013,06,26,17,36,16.70
2013,06,26,17,37,16.70
2013,06,26,17,38,16.70
2013,06,26,17,39,16.70
2013,06,26,17,40,16.70
2013,06,26,17,41,16.70
2013,06,26,17,42,16.70
2013,06,26,17,43,16.70
2013,06,26,17,44,16.70
2013,06,26,17,45,16.70
2013,06,26,17,46,16.70
2013,06,26,17,47,16.70
2013,06,26,17,48,16.70
2013,06,26,17,49,16.70
2013,06,26,17,50,16.70
2013,06,26,17,51,16.70
2013,06,26,17,52,16.70
2013,06,26,17,53,16.70
2013,06,26,17,54,16.70
2013,06,26,17,55,16.60
2013,06,26,17,56,16.60
2013,06,26,17,57,16.60
2013,06,26,17,58,16.60
2013,06,26,17,59,16.40
2013,06,26,18,00,16.40
2013,06,26,18,01,16.40
2013,06,26,18,02,16.40
2013,06,26,18,03,16.30
2013,06,26,18,04,16.30
2013,06,26,18,05,16.20
2013,06,26,18,06,16.20
2013,06,26,18,07,16.20
2013,06,26,18,08,16.10
2013,06,26,18,09,16.10
2013,06,26,18,10,16.10
2013,06,26,18,11,16.10
2013,06,26,18,12,16.10
2013,06,26,18,13,16.10
2013,06,26,18,14,16.20
2013,06,26,18,15,16.20
2013,06,26,18,16,16.20
2013,06,26,18,17,16.20
2013,06,26,18,18,16.30
2013,06,26,18,19,16.30
2013,06,26,18,20,16.30
2013,06,26,18,21,16.30
2013,06,26,18,22,16.40
2013,06,26,18,23,16.40
2013,06,26,18,24,16.40
2013,06,26,18,25,16.40
2013,06,26,18,26,16.40
2013,06,26,18,27,16.40
2013,06,26,18,28,16.40
2013,06,26,18,29,16.40
2013,06,26,18,30,16.40
2013,06,26,18,31,16.40
2013,06,26,18,32,16.40
2013,06,26,18,33,16.40
2013,06,26,18,34,16.40
2013,06,26,18,35,16.40
2013,06,26,18,36,16.40
2013,06,26,18,37,16.40
2013,06,26,18,38,16.40
2013,06,26,18,39,16.40
2013,06,26,18,40,16.40
2013,06,26,18,41,16.40
2013,06,26,18,42,16.40
2013,06,26,18,43,16.40
2013,06,26,18,44,16.40
2013,06,26,18,45,16.40
2013,06,26,18,46,16.40
2013,06,26,18,47,16.40
2013,06,26,18,48,16.40
2013,06,26,18,49,16.40
2013,06,26,18,50,16.30
2013,06,26,18,51,16.30
2013,06,26,18,52,16.30
2013,06,26,18,53,16.30
2013,06,26,18,54,16.30
2013,06,26,18,55,16.30
2013,06,26,18,56,16.30
2013,06,26,18,57,16.30
2013,06,26,18,58,16.20
2013,06,26,18,59,16.20
2013,06,26,19,00,16.20
2013,06,26,19,01,16.20
2013,06,26,19,02,16.20
2013,06,26,19,03,16.20
2013,06,26,19,04,16.10
2013,06,26,19,05,16.10
2013,06,26,19,06,16.10
2013,06,26,19,07,16.10
2013,06,26,19,08,16.10
2013,06,26,19,09,16.10
2013,06,26,19,10,16.10
2013,06,26,19,11,16.10
2013,06,26,19,12,16.10
2013,06,26,19,13,16.10
2013,06,26,19,14,16.10
2013,06,26,19,15,16.10
2013,06,26,19,16,16.10
2013,06,26,19,17,16.10
2013,06,26,19,18,15.90
2013,06,26,19,19,15.90
2013,06,26,19,20,15.80
2013,06,26,19,21,15.80
2013,06,26,19,22,15.80
2013,06,26,19,23,15.80
2013,06,26,19,24,15.70
2013,06,26,19,25,15.70
2013,06,26,19,26,15.60
2013,06,26,19,27,15.60
2013,06,26,19,28,15.50
2013,06,26,19,29,15.50
2013,06,26,19,30,15.40
2013,06,26,19,31,15.40
2013,06,26,19,32,15.30
2013,06,26,19,33,15.30
2013,06,26,19,34,15.30
2013,06,26,19,35,15.20
2013,06,26,19,36,15.20
2013,06,26,19,37,15.20
2013,06,26,19,38,15.10
2013,06,26,19,39,15.10
2013,06,26,19,40,15.10
2013,06,26,19,41,15.10
2013,06,26,19,42,15.10
2013,06,26,19,43,15.10
2013,06,26,19,44,15.10
2013,06,26,19,45,15.10
2013,06,26,19,46,15.10
2013,06,26,19,47,15.10
2013,06,26,19,48,15.10
2013,06,26,19,49,15.00
2013,06,26,19,50,15.00
2013,06,26,19,51,15.00
2013,06,26,19,52,15.00
2013,06,26,19,53,14.90
2013,06,26,19,54,14.90
2013,06,26,19,55,14.80
2013,06,26,19,56,14.80
2013,06,26,19,57,14.80
2013,06,26,19,58,14.80
2013,06,26,19,59,14.80
2013,06,26,20,00,14.80
2013,06,26,20,01,14.80
2013,06,26,20,02,14.80
2013,06,26,20,03,14.70
2013,06,26,20,04,14.70
2013,06,26,20,05,14.70
2013,06,26,20,06,14.70
2013,06,26,20,07,14.70
2013,06,26,20,08,14.70
2013,06,26,20,09,14.70
2013,06,26,20,10,14.80
2013,06,26,20,11,14.80
2013,06,26,20,12,14.80
2013,06,26,20,13,14.80
2013,06,26,20,14,14.80
2013,06,26,20,15,14.80
2013,06,26,20,16,14.80
2013,06,26,20,17,14.80
2013,06,26,20,18,14.70
2013,06,26,20,19,14.70
2013,06,26,20,20,14.70
2013,06,26,20,21,14.70
2013,06,26,20,22,14.70
2013,06,26,20,23,14.70
2013,06,26,20,24,14.70
2013,06,26,20,25,14.70
2013,06,26,20,26,14.70
2013,06,26,20,27,14.70
2013,06,26,20,28,14.70
2013,06,26,20,29,14.70
2013,06,26,20,30,14.70
2013,06,26,20,31,14.70
2013,06,26,20,32,14.70
2013,06,26,20,33,14.70
2013,06,26,20,34,14.70
2013,06,26,20,35,14.70
2013,06,26,20,36,14.70
2013,06,26,20,37,14.70
2013,06,26,20,38,14.70
2013,06,26,20,39,14.70
2013,06,26,20,40,14.70
2013,06,26,20,41,14.70
2013,06,26,20,42,14.70
2013,06,26,20,43,14.70
2013,06,26,20,44,14.70
2013,06,26,20,45,14.70
2013,06,26,20,46,14.70
2013,06,26,20,47,14.70
2013,06,26,20,48,14.70
2013,06,26,20,49,14.70
2013,06,26,20,50,14.80
2013,06,26,20,51,14.80
2013,06,26,20,52,14.80
2013,06,26,20,53,14.80
2013,06,26,20,54,14.80
2013,06,26,20,55,14.80
2013,06,26,20,56,14.80
2013,06,26,20,57,14.80
2013,06,26,20,58,14.80
2013,06,26,20,59,14.80
2013,06,26,21,00,14.80